Regional Weather Roundup
Issued by NWS

Home | Current Version | Previous Version | Text Only | Print | Product List | Glossary On
Versions: 1 2 3 4 5 6 7 8 9 10 11 12 13 14 15 16 17 18 19 20 21 22 23 24 25 26 27 28 29 30 31 32 33 34 35 36 37 38 39 40 41 42 43 44 45 46 47 48 49 50
000
ASUS44 KOUN 242310
RWROK

WEATHER ROUNDUP FOR OKLAHOMA
NATIONAL WEATHER SERVICE NORMAN OK
600 PM CDT SUN MAY 24 2015

NOTE: "FAIR" INDICATES FEW OR NO CLOUDS BELOW 12,000 FEET WITH NO
      SIGNIFICANT WEATHER AND/OR OBSTRUCTIONS TO VISIBILITY.

OKZ001>007-009>012-014-015-017-250000-
NORTHWEST OKLAHOMA AND THE PANHANDLE

CITY           SKY/WX    TMP DP  RH WIND       PRES   REMARKS
GAGE           CLOUDY    71  62  73 SE15      29.79S
GUYMON         MOSUNNY   77  55  46 S13       29.71F
ENID/WOODRING  LGT RAIN  64  64 100 CALM      29.85R
$$

OKZ016-021>023-033>039-044-045-250000-
SOUTHWEST OKLAHOMA

CITY           SKY/WX    TMP DP  RH WIND       PRES   REMARKS
LAWTON/REGL    PTSUNNY   77  65  66 SE9       29.78F
LAWTON/FT SILL MOSUNNY   78  65  65 SE12      29.78S
FREDERICK      PTSUNNY   80  65  59 S14G22    29.75S
CLINTON        PTSUNNY   75  64  68 S12       29.80F
HOBART         MOSUNNY   78  62  57 S12       29.78F
ALTUS AFB      MOSUNNY   79  67  67 SE8       29.75F
$$

OKZ018>020-024>031-250000-
CENTRAL OKLAHOMA

CITY           SKY/WX    TMP DP  RH WIND       PRES   REMARKS
OKLAHOMA CITY  CLOUDY    69  64  84 SE7       29.84R
OKC/WILEY POST CLOUDY    71  64  78 S6        29.84R
OKC/TINKER AFB CLOUDY    68  64  88 VRB6      29.84S
STILLWATER     LGT RAIN  68  65  90 NE7       29.83F
GUTHRIE        CLOUDY    68  65  90 CALM      29.84R
$$

OKZ008-013-054>072-250000-
NORTHEAST OKLAHOMA

CITY           SKY/WX    TMP DP  RH WIND       PRES   REMARKS
TULSA          CLOUDY    68  63  84 SE5       29.84S
TULSA/JONES    LGT RAIN  66  62  87 E5        29.84F
PONCA CITY     LGT RAIN  66  63  90 S7        29.85R
BARTLESVILLE   LGT RAIN  64  64 100 SE6       29.85S FOG
MUSKOGEE       CLOUDY    66  64  93 SE10      29.85F
$$

OKZ032-040>043-046>053-073>077-250000-
SOUTH CENTRAL/SOUTHEAST OKLAHOMA

CITY           SKY/WX    TMP DP  RH WIND       PRES   REMARKS
ARDMORE/DWNTWN PTSUNNY   75  63  64 SW5       29.82F
MCALESTER      CLOUDY    68  64  87 SE6       29.85F
$$



USA.gov is the U.S. government's official web portal to all federal, state and local government web resources and services.